SCP
0 0 0 0 0 0 -0 -0 0 0 0 0 0 0 0 0 0 0 0 0 0 0 0 0 0 0 0 0 0 0 0 0 0 0 0 0 0 0 0 0 0 0 0 0
0 0 0 0 0 0 -0 0 -0 0 0 0 0 0 0 0 0 0 0 0 0 0 0 0 0 0 0 0 0 0 0 0 0 0 0 0 0 0 0 0 0 0 0 0
0 0 0 0 0 0 -0 -0 0 0 0 0 0 0 0 0 0 0 0 0 0 0 0 0 0 0 0 0 0 0 0 0 0 0 0 0 0 0 0 0 0 0 0 0
0 0 0 0 0 0 0 0 0 0 0 0 0 0 0 0 0 0 0 0 0 0 0 0 0 0 0 0 0 0 0 0 0 0 0 0 0 0 0 0 0 0 0 0
0 0 0 0 0 0 0 0 0 0 0 0 0 0 0 0 0 0 0 0 0 0 0 0 0 0 0 0 0 0 0 0 0 0 0 0 0 0 0 0 0 0 0 0
0 0 0 0 0 0 0 0 0 0 0 0 0 0 0 0 0 0 0 0 0 0 0 0 0 0 0 0 0 0 0 0 0 0 0 0 0 0 0 0 0 0 0 0
0 0 0 0 0 0 0 0 0 0 0 0 0 0 0 0 0 0 0 0 0 0 0 0 0 0 0 0 0 0 0 0 0 0 0 0 0 0 0 0 0 0 0 0
0 0 0 0 0 0 0 0 0 0 0 0 0 0 0 0 0 0 0 0 0 0 0 0 0 0 0 0 0 0 0 0 0 0 0 0 0 0 0 0 0 0 0 0
0 0 0 0 0 0 0 0 0 0 0 0 0 0 0 0 0 0 0 0 0 0 0 0 0 0 0 0 0 0 0 0 0 0 0 0 0 0 0 0 0 0 0 0
0 0 0 0 0 0 0 0 0 0 0 0 0 0 0 0 0 0 0 0 0 0 0 0 0 0 0 0 0 0 0 0 0 0 0 0 0 0 0 0 0 0 0 0
0 0 0 0 0 0 0 0 0 0 0 0 0 0 0 0 0 0 0 0 0 0 0 0 0 0 0 0 0 0 0 0 0 0 0 0 0 0 0 0 0 0 0 0
0 0 0 0 0 0 0 0 0 0 0 0 -0 -0 0 0 0 0 0 0 0 0 0 0 0 0 0 0 0 0 0 0 0 0 0 0 0 0 0 0 0 0 0 0
0 0 0 0 0 0 0 0 0 0 0 0 0 0 0 0 0 0 0 0 0 0 0 0 0 0 0 0 0 0 0 0 0 0 0 0 0 0 0 0 0 0 0 0
0 0 0 0 0 0 0 0 0 0 0 0 0 0 -0 0 0 0 0 0 -0 0 0 0 0 0 0 0 0 0 0 0 0 0 0 0 0 0 0 0 0 0 0 0
0 -0 -0 0 0 0 0 0 0 0 0 0 0 0 0 0 0 0 0 0 0 0 0 0 0 0 0 0 0 0 0 0 0 0 0 0 0 0 0 0 0 0 0 0
0 0 0 0 0 0 0 0 0 0 0 0 0 0 -0 -0 0 0 0 0 0 0 0 0 0 0 0 0 0 0 0 0 -0 0 0 0 0 0 0 0 0 0 0 0
0 0 0 0 0 0 0 0 0 0 0 0 0 0 -0 -0 -0 -0 -0 -0 -0 0 0 0 0 0 0 -0 0 0 0 0 -0 -0 -0 0 0 0 0 0 0 0 0 0
0 0 0 0 0 0 0 0 0 0 0 0 0 0 0 -0 -0 0 -0 -0 -0 -0 0 -0 0 -0 -0 0 0 0 0 0 0 0 0 0 0 0 0 0 0 0 0 0
0 -0 -0 0 0 0 0 0 0 0 0 0 0 0 0 0 0 0 0 0 0 0 0 0 0 0 0 0 0 0 0 0 0 -0 -0 -0 0 0 0 0 0 0 0 0
-0 0 0 0 0 0 -0 0 0 0 0 0 0 0 0 0 0 0 0 0 0 0 0 -0 0 0 0 0 -0 0 0 0 0 0 0 0 0 0 0 -0 -0 -0 -0 -0
0 0 0 0 -0 0 0 0 0 0 0 0 0 0 0 0 0 0 0 0 0 0 0 0 0 0 0 0 0 -0 0 0 -0 0 -0 0 0 -0 0 -0 -0 -0 -0 -0
0 0 0 0 0 0 0 0 0 0 0 0 0 0 0 0 0 0 0 0 0 0 0 0 0 0 0 0 0 -0 -0 -0 0 0 -0 0 0 0 -0 0 0 0 -0 -0
0 0 0 0 0 0 0 0 0 0 0 -0 -0 0 0 0 0 0 0 0 0 0 0 0 0 0 0 0 0 0 0 -0 -0 -0 0 0 0 -0 -0 -0 -0 -0 0 0
0 0 0 0 0 0 0 0 0 0 0 0 0 0 0 0 0 0 0 0 0 0 0 0 0 0 -0 -0 0 0 -0 -0 0 -0 -0 -0 -0 -0 0 0 0 0 0 0
0 0 0 0 0 0 0 0 0 0 0 0 0 0 0 0 0 0 0 0 0 0 0 0 0 -0 0 -0 0 0 0 0 0 0 -0 -0 0 0 0 0 0 0 0 0
0 0 0 0 0 -0 0 0 0 0 0 0 0 0 0 0 0 0 0 0 0 0 0 -0 0 -0 -0 -0 -0 0 0 0 0 0 0 0 0 0 0 0 0 0 0 0
-0 -0 -0 0 0 -0 -0 0 0 0 0 0 0 0 0 0 0 0 0 0 0 0 -0 -0 0 -0 0 -0 -0 0 0 0 0 0 0 0 -0 0 0 0 0 0 0 0
Wind_Speed_500mb
67 68 69 72 76 75 61 31 9 12 24 8 10 4 19 8 17 13 5 12 9 12 16 16 18 25 19 18 14 6 8 5 2 9 22 14 6 8 11 9 4 4 5 11
65 67 68 65 61 64 67 40 15 13 24 6 7 17 23 25 22 20 8 10 11 14 12 11 8 17 32 17 5 4 5 5 4 10 10 9 7 5 10 14 7 9 5 10
64 67 67 61 50 46 45 17 8 20 19 31 17 19 12 19 34 33 34 27 10 14 16 14 14 18 19 13 13 16 14 7 12 12 12 9 5 10 10 14 8 8 12 18
65 65 60 56 47 33 30 9 9 20 9 20 39 24 20 31 24 31 41 16 16 16 15 12 20 20 20 28 33 19 12 12 11 13 17 23 18 22 25 19 19 15 25 28
62 60 56 53 47 29 17 14 15 21 42 35 23 15 19 33 31 13 14 17 23 20 11 10 9 15 12 7 5 10 8 3 8 11 16 22 29 22 15 15 16 17 20 17
55 52 49 46 43 35 12 18 22 15 19 20 18 16 25 36 43 20 22 24 22 19 21 33 19 22 34 26 12 13 16 12 7 10 17 18 15 12 13 7 9 11 7 7
49 47 45 43 35 28 22 19 22 19 14 20 23 43 49 38 40 20 36 34 22 39 63 61 39 36 35 37 30 18 10 8 5 7 4 11 9 13 22 19 5 14 15 18
42 41 41 40 33 23 21 8 26 23 14 29 40 42 44 53 51 41 42 41 39 32 40 12 13 6 16 19 26 18 13 12 6 8 11 13 16 14 7 7 6 11 15 17
37 34 36 37 33 30 24 13 14 23 23 13 34 49 44 20 17 18 28 48 46 39 8 8 14 11 8 10 9 26 21 13 14 7 10 14 9 27 26 14 6 29 31 19
36 31 31 32 32 31 29 23 14 24 33 42 41 33 28 42 30 16 36 40 35 33 5 8 13 21 14 23 30 18 10 15 26 17 10 10 11 11 8 9 12 32 26 20
37 35 30 31 31 31 31 35 14 28 40 52 67 51 42 39 40 17 33 22 13 11 9 6 6 8 11 18 28 25 15 15 11 10 20 25 26 12 16 17 25 20 24 25
37 35 30 32 34 31 31 39 24 32 43 51 61 63 62 56 58 59 44 25 31 7 6 6 7 7 8 11 13 13 17 10 10 9 8 12 34 47 35 25 36 28 25 17
36 35 32 33 33 33 31 40 38 35 34 47 38 40 51 32 37 48 44 43 37 37 19 7 7 11 7 5 8 12 6 24 6 7 2 17 52 42 34 28 28 19 13 11
36 34 30 32 34 37 39 41 37 31 28 13 36 26 46 47 42 46 39 47 43 34 22 11 5 7 7 6 4 1 2 15 11 6 13 7 32 49 46 35 25 22 16 13
32 27 30 27 35 36 36 40 34 29 26 11 38 71 19 19 25 28 37 35 34 24 10 9 7 10 7 11 9 6 14 8 5 4 20 13 28 38 32 26 21 17 16 11
26 25 27 33 32 32 34 10 15 5 22 15 8 29 25 28 21 17 23 24 29 33 9 7 13 31 12 6 6 14 18 21 28 13 12 37 33 29 27 21 21 18 14 7
28 28 30 31 31 30 20 14 17 37 36 10 13 13 6 17 18 7 25 24 22 18 9 13 14 11 4 7 7 18 6 39 42 45 39 36 30 25 29 22 18 21 8 1
30 32 34 35 36 36 23 18 16 14 10 9 6 10 9 16 11 9 6 6 13 10 10 7 9 6 9 8 13 23 8 27 37 24 28 29 24 27 28 23 16 7 5 14
35 35 31 19 10 10 14 20 20 16 11 6 9 6 7 15 10 8 10 6 5 8 9 7 4 2 6 8 22 10 7 34 31 26 24 21 35 30 26 23 23 21 21 15
29 22 11 8 19 31 30 7 2 8 8 10 10 19 10 15 8 8 9 6 1 3 8 17 7 6 5 24 18 7 24 25 16 23 7 43 39 37 28 27 21 17 13 10
23 13 8 26 26 17 6 6 9 10 6 8 11 18 11 18 6 5 8 4 1 3 4 5 3 4 7 27 44 27 20 21 41 35 44 43 38 34 29 24 18 14 13 13
26 23 30 18 8 7 9 7 6 3 2 8 14 22 24 16 10 7 7 2 4 5 9 4 4 3 11 4 23 30 45 39 39 39 42 40 39 30 27 25 22 20 15 21
11 7 8 11 3 3 6 14 5 8 19 13 29 22 10 11 9 6 5 2 5 5 5 4 4 14 9 24 37 43 39 47 46 44 40 38 33 26 24 24 25 26 28 32
7 8 9 4 6 7 5 10 7 16 17 25 26 16 7 11 4 3 6 4 3 2 6 9 6 18 24 38 49 45 45 45 40 37 34 29 25 19 15 11 14 29 27 29
7 4 5 6 9 21 19 18 20 18 17 14 14 15 9 7 3 3 6 6 7 5 7 2 4 25 49 52 46 42 37 33 32 30 21 21 13 8 9 1 5 13 28 28
7 6 7 26 11 18 19 18 21 29 18 12 7 7 7 4 7 10 8 7 9 3 2 23 31 37 34 36 38 33 26 28 22 19 12 11 1 6 0 1 12 13 23 30
7 13 28 29 27 19 29 29 32 30 16 9 6 7 8 10 7 8 7 6 3 16 27 26 19 28 26 31 33 31 26 24 19 13 7 6 7 6 5 14 5 7 21 23
Wind_Direction_500mb
349 349 351 353 349 350 1 359 322 317 6 310 218 221 305 270 328 356 315 201 259 283 299 300 311 307 309 44 34 4 44 111 136 267 304 316 61 102 113 121 174 83 176 262
347 347 349 354 354 351 350 340 285 356 1 329 329 346 332 332 336 345 344 279 330 351 320 323 279 310 306 130 65 86 349 317 3 324 326 30 67 76 91 109 110 190 155 264
343 344 346 350 356 348 344 340 308 343 351 26 15 355 311 335 330 321 319 314 342 308 295 293 281 286 294 232 126 160 138 168 173 198 233 309 212 228 217 139 128 208 219 250
341 342 345 347 353 351 351 347 347 16 320 338 324 309 288 294 297 294 298 310 275 243 268 286 283 286 284 276 164 157 136 194 225 257 260 264 255 242 213 198 195 176 234 239
338 340 342 345 349 1 17 355 357 333 305 305 317 320 303 294 296 317 343 323 328 334 322 337 335 7 19 292 279 151 152 206 249 266 279 284 278 279 281 285 269 241 244 256
334 338 341 343 344 353 358 333 318 334 283 299 293 282 308 319 317 317 301 325 332 317 312 353 316 305 292 276 268 210 166 168 208 247 257 279 290 277 291 329 297 27 345 347
332 337 339 341 343 344 335 334 328 297 287 308 295 307 312 310 316 323 324 312 312 296 298 310 315 309 298 282 268 248 184 179 171 209 322 265 246 271 280 265 337 66 62 61
327 334 339 336 337 327 319 5 331 308 292 307 296 298 327 324 320 314 311 313 324 341 279 291 299 304 298 238 249 236 193 178 207 184 210 271 280 288 340 45 44 88 102 69
322 328 336 334 340 338 319 269 322 314 294 249 309 316 306 313 329 320 334 324 338 345 275 212 242 237 317 271 224 218 230 197 198 165 176 219 188 232 212 121 231 99 95 103
315 315 325 332 335 332 322 315 319 310 290 284 292 312 309 304 302 289 309 320 330 318 310 265 243 253 259 255 273 271 227 235 221 211 222 259 213 148 115 161 211 96 101 86
313 304 306 319 322 317 319 312 277 305 286 283 282 291 309 307 302 298 321 339 14 313 254 248 243 257 244 274 267 271 245 176 217 271 221 243 179 105 155 148 119 118 90 84
311 308 294 303 317 314 313 306 309 292 296 276 282 282 284 277 276 267 276 272 309 279 313 6 326 324 319 313 289 284 260 210 177 153 235 128 134 111 119 105 102 84 82 67
307 309 291 296 309 314 308 303 307 309 297 307 280 287 301 280 300 256 243 260 263 274 259 303 279 256 335 290 359 319 69 12 341 97 95 142 132 128 131 141 121 105 90 68
310 307 299 299 304 304 305 298 304 290 291 275 290 300 297 289 275 270 265 261 257 273 266 228 269 276 318 322 222 27 291 327 332 48 71 89 101 117 115 114 116 112 100 74
317 307 305 302 309 308 301 301 301 272 265 286 293 308 328 308 316 246 247 238 235 256 260 216 227 269 319 266 256 187 191 156 249 108 161 192 117 108 115 114 116 115 102 97
326 321 311 310 310 308 316 323 269 345 356 310 299 292 316 339 296 272 261 224 254 239 239 251 247 246 279 312 264 93 139 161 149 142 160 152 128 125 124 120 115 100 104 99
327 324 319 313 307 304 283 260 286 311 320 280 291 284 295 317 320 320 262 265 257 226 242 226 249 285 215 182 277 107 97 227 162 133 141 124 135 120 130 121 95 92 97 302
322 319 316 310 307 302 300 307 302 302 262 259 277 280 341 330 323 326 273 258 190 206 222 241 217 144 195 251 177 144 208 120 112 97 129 132 129 119 108 100 90 95 54 81
324 320 317 322 338 307 313 312 292 282 247 278 251 282 298 337 328 299 309 251 207 212 212 209 97 345 234 279 150 142 80 122 123 132 137 136 110 93 82 83 73 61 55 51
338 352 337 306 337 329 316 298 205 207 231 233 261 302 307 323 313 328 302 241 278 278 228 146 194 212 66 69 107 114 130 110 102 124 92 110 93 85 75 70 68 67 57 37
356 328 293 307 307 308 256 262 217 198 229 234 264 300 307 304 243 253 266 320 114 270 300 146 157 52 305 126 128 131 124 109 110 100 93 97 95 90 88 82 74 66 38 27
316 308 307 309 313 299 351 321 349 323 319 287 304 319 304 296 277 214 303 302 21 292 327 38 56 285 193 191 126 131 127 123 113 102 98 96 95 98 97 88 72 57 32 2
13 309 306 306 222 247 319 353 349 327 346 336 327 320 309 301 270 337 309 359 246 9 27 68 325 312 196 199 114 115 117 109 110 108 106 104 105 99 89 88 72 46 25 22
309 344 346 305 9 345 327 340 308 295 282 306 319 296 301 292 310 314 295 331 344 17 52 38 221 206 116 111 118 121 116 118 119 120 116 114 112 110 103 98 70 44 34 26
306 349 338 273 252 298 286 288 308 318 305 317 313 282 246 277 286 359 310 326 76 15 73 7 98 136 100 110 117 118 118 126 126 133 122 129 131 137 120 115 315 14 26 14
283 218 223 279 263 8 2 6 340 347 315 337 265 295 311 320 345 7 12 1 37 318 34 96 99 102 109 116 124 130 140 142 137 146 129 150 273 196 227 103 288 321 10 351
291 299 323 359 346 17 19 6 351 351 346 9 18 325 2 337 358 24 14 14 287 134 102 127 129 119 118 121 130 126 127 135 149 146 162 109 357 247 282 313 28 12 0 351
Wind_Speed_850mb
67 68 69 72 76 75 61 31 9 12 24 8 10 4 19 8 17 13 5 12 9 12 16 16 18 25 19 18 14 6 8 5 2 9 22 14 6 8 11 9 4 4 5 11
65 67 68 65 61 64 67 40 15 13 24 6 7 17 23 25 22 20 8 10 11 14 12 11 8 17 32 17 5 4 5 5 4 10 10 9 7 5 10 14 7 9 5 10
64 67 67 61 50 46 45 17 8 20 19 31 17 19 12 19 34 33 34 27 10 14 16 14 14 18 19 13 13 16 14 7 12 12 12 9 5 10 10 14 8 8 12 18
65 65 60 56 47 33 30 9 9 20 9 20 39 24 20 31 24 31 41 16 16 16 15 12 20 20 20 28 33 19 12 12 11 13 17 23 18 22 25 19 19 15 25 28
62 60 56 53 47 29 17 14 15 21 42 35 23 15 19 33 31 13 14 17 23 20 11 10 9 15 12 7 5 10 8 3 8 11 16 22 29 22 15 15 16 17 20 17
55 52 49 46 43 35 12 18 22 15 19 20 18 16 25 36 43 20 22 24 22 19 21 33 19 22 34 26 12 13 16 12 7 10 17 18 15 12 13 7 9 11 7 7
49 47 45 43 35 28 22 19 22 19 14 20 23 43 49 38 40 20 36 34 22 39 63 61 39 36 35 37 30 18 10 8 5 7 4 11 9 13 22 19 5 14 15 18
42 41 41 40 33 23 21 8 26 23 14 29 40 42 44 53 51 41 42 41 39 32 40 12 13 6 16 19 26 18 13 12 6 8 11 13 16 14 7 7 6 11 15 17
37 34 36 37 33 30 24 13 14 23 23 13 34 49 44 20 17 18 28 48 46 39 8 8 14 11 8 10 9 26 21 13 14 7 10 14 9 27 26 14 6 29 31 19
36 31 31 32 32 31 29 23 14 24 33 42 41 33 28 42 30 16 36 40 35 33 5 8 13 21 14 23 30 18 10 15 26 17 10 10 11 11 8 9 12 32 26 20
37 35 30 31 31 31 31 35 14 28 40 52 67 51 42 39 40 17 33 22 13 11 9 6 6 8 11 18 28 25 15 15 11 10 20 25 26 12 16 17 25 20 24 25
37 35 30 32 34 31 31 39 24 32 43 51 61 63 62 56 58 59 44 25 31 7 6 6 7 7 8 11 13 13 17 10 10 9 8 12 34 47 35 25 36 28 25 17
36 35 32 33 33 33 31 40 38 35 34 47 38 40 51 32 37 48 44 43 37 37 19 7 7 11 7 5 8 12 6 24 6 7 2 17 52 42 34 28 28 19 13 11
36 34 30 32 34 37 39 41 37 31 28 13 36 26 46 47 42 46 39 47 43 34 22 11 5 7 7 6 4 1 2 15 11 6 13 7 32 49 46 35 25 22 16 13
32 27 30 27 35 36 36 40 34 29 26 11 38 71 19 19 25 28 37 35 34 24 10 9 7 10 7 11 9 6 14 8 5 4 20 13 28 38 32 26 21 17 16 11
26 25 27 33 32 32 34 10 15 5 22 15 8 29 25 28 21 17 23 24 29 33 9 7 13 31 12 6 6 14 18 21 28 13 12 37 33 29 27 21 21 18 14 7
28 28 30 31 31 30 20 14 17 37 36 10 13 13 6 17 18 7 25 24 22 18 9 13 14 11 4 7 7 18 6 39 42 45 39 36 30 25 29 22 18 21 8 1
30 32 34 35 36 36 23 18 16 14 10 9 6 10 9 16 11 9 6 6 13 10 10 7 9 6 9 8 13 23 8 27 37 24 28 29 24 27 28 23 16 7 5 14
35 35 31 19 10 10 14 20 20 16 11 6 9 6 7 15 10 8 10 6 5 8 9 7 4 2 6 8 22 10 7 34 31 26 24 21 35 30 26 23 23 21 21 15
29 22 11 8 19 31 30 7 2 8 8 10 10 19 10 15 8 8 9 6 1 3 8 17 7 6 5 24 18 7 24 25 16 23 7 43 39 37 28 27 21 17 13 10
23 13 8 26 26 17 6 6 9 10 6 8 11 18 11 18 6 5 8 4 1 3 4 5 3 4 7 27 44 27 20 21 41 35 44 43 38 34 29 24 18 14 13 13
26 23 30 18 8 7 9 7 6 3 2 8 14 22 24 16 10 7 7 2 4 5 9 4 4 3 11 4 23 30 45 39 39 39 42 40 39 30 27 25 22 20 15 21
11 7 8 11 3 3 6 14 5 8 19 13 29 22 10 11 9 6 5 2 5 5 5 4 4 14 9 24 37 43 39 47 46 44 40 38 33 26 24 24 25 26 28 32
7 8 9 4 6 7 5 10 7 16 17 25 26 16 7 11 4 3 6 4 3 2 6 9 6 18 24 38 49 45 45 45 40 37 34 29 25 19 15 11 14 29 27 29
7 4 5 6 9 21 19 18 20 18 17 14 14 15 9 7 3 3 6 6 7 5 7 2 4 25 49 52 46 42 37 33 32 30 21 21 13 8 9 1 5 13 28 28
7 6 7 26 11 18 19 18 21 29 18 12 7 7 7 4 7 10 8 7 9 3 2 23 31 37 34 36 38 33 26 28 22 19 12 11 1 6 0 1 12 13 23 30
7 13 28 29 27 19 29 29 32 30 16 9 6 7 8 10 7 8 7 6 3 16 27 26 19 28 26 31 33 31 26 24 19 13 7 6 7 6 5 14 5 7 21 23
Wind_Direction_850mb
349 349 351 353 349 350 1 359 322 317 6 310 218 221 305 270 328 356 315 201 259 283 299 300 311 307 309 44 34 4 44 111 136 267 304 316 61 102 113 121 174 83 176 262
347 347 349 354 354 351 350 340 285 356 1 329 329 346 332 332 336 345 344 279 330 351 320 323 279 310 306 130 65 86 349 317 3 324 326 30 67 76 91 109 110 190 155 264
343 344 346 350 356 348 344 340 308 343 351 26 15 355 311 335 330 321 319 314 342 308 295 293 281 286 294 232 126 160 138 168 173 198 233 309 212 228 217 139 128 208 219 250
341 342 345 347 353 351 351 347 347 16 320 338 324 309 288 294 297 294 298 310 275 243 268 286 283 286 284 276 164 157 136 194 225 257 260 264 255 242 213 198 195 176 234 239
338 340 342 345 349 1 17 355 357 333 305 305 317 320 303 294 296 317 343 323 328 334 322 337 335 7 19 292 279 151 152 206 249 266 279 284 278 279 281 285 269 241 244 256
334 338 341 343 344 353 358 333 318 334 283 299 293 282 308 319 317 317 301 325 332 317 312 353 316 305 292 276 268 210 166 168 208 247 257 279 290 277 291 329 297 27 345 347
332 337 339 341 343 344 335 334 328 297 287 308 295 307 312 310 316 323 324 312 312 296 298 310 315 309 298 282 268 248 184 179 171 209 322 265 246 271 280 265 337 66 62 61
327 334 339 336 337 327 319 5 331 308 292 307 296 298 327 324 320 314 311 313 324 341 279 291 299 304 298 238 249 236 193 178 207 184 210 271 280 288 340 45 44 88 102 69
322 328 336 334 340 338 319 269 322 314 294 249 309 316 306 313 329 320 334 324 338 345 275 212 242 237 317 271 224 218 230 197 198 165 176 219 188 232 212 121 231 99 95 103
315 315 325 332 335 332 322 315 319 310 290 284 292 312 309 304 302 289 309 320 330 318 310 265 243 253 259 255 273 271 227 235 221 211 222 259 213 148 115 161 211 96 101 86
313 304 306 319 322 317 319 312 277 305 286 283 282 291 309 307 302 298 321 339 14 313 254 248 243 257 244 274 267 271 245 176 217 271 221 243 179 105 155 148 119 118 90 84
311 308 294 303 317 314 313 306 309 292 296 276 282 282 284 277 276 267 276 272 309 279 313 6 326 324 319 313 289 284 260 210 177 153 235 128 134 111 119 105 102 84 82 67
307 309 291 296 309 314 308 303 307 309 297 307 280 287 301 280 300 256 243 260 263 274 259 303 279 256 335 290 359 319 69 12 341 97 95 142 132 128 131 141 121 105 90 68
310 307 299 299 304 304 305 298 304 290 291 275 290 300 297 289 275 270 265 261 257 273 266 228 269 276 318 322 222 27 291 327 332 48 71 89 101 117 115 114 116 112 100 74
317 307 305 302 309 308 301 301 301 272 265 286 293 308 328 308 316 246 247 238 235 256 260 216 227 269 319 266 256 187 191 156 249 108 161 192 117 108 115 114 116 115 102 97
326 321 311 310 310 308 316 323 269 345 356 310 299 292 316 339 296 272 261 224 254 239 239 251 247 246 279 312 264 93 139 161 149 142 160 152 128 125 124 120 115 100 104 99
327 324 319 313 307 304 283 260 286 311 320 280 291 284 295 317 320 320 262 265 257 226 242 226 249 285 215 182 277 107 97 227 162 133 141 124 135 120 130 121 95 92 97 302
322 319 316 310 307 302 300 307 302 302 262 259 277 280 341 330 323 326 273 258 190 206 222 241 217 144 195 251 177 144 208 120 112 97 129 132 129 119 108 100 90 95 54 81
324 320 317 322 338 307 313 312 292 282 247 278 251 282 298 337 328 299 309 251 207 212 212 209 97 345 234 279 150 142 80 122 123 132 137 136 110 93 82 83 73 61 55 51
338 352 337 306 337 329 316 298 205 207 231 233 261 302 307 323 313 328 302 241 278 278 228 146 194 212 66 69 107 114 130 110 102 124 92 110 93 85 75 70 68 67 57 37
356 328 293 307 307 308 256 262 217 198 229 234 264 300 307 304 243 253 266 320 114 270 300 146 157 52 305 126 128 131 124 109 110 100 93 97 95 90 88 82 74 66 38 27
316 308 307 309 313 299 351 321 349 323 319 287 304 319 304 296 277 214 303 302 21 292 327 38 56 285 193 191 126 131 127 123 113 102 98 96 95 98 97 88 72 57 32 2
13 309 306 306 222 247 319 353 349 327 346 336 327 320 309 301 270 337 309 359 246 9 27 68 325 312 196 199 114 115 117 109 110 108 106 104 105 99 89 88 72 46 25 22
309 344 346 305 9 345 327 340 308 295 282 306 319 296 301 292 310 314 295 331 344 17 52 38 221 206 116 111 118 121 116 118 119 120 116 114 112 110 103 98 70 44 34 26
306 349 338 273 252 298 286 288 308 318 305 317 313 282 246 277 286 359 310 326 76 15 73 7 98 136 100 110 117 118 118 126 126 133 122 129 131 137 120 115 315 14 26 14
283 218 223 279 263 8 2 6 340 347 315 337 265 295 311 320 345 7 12 1 37 318 34 96 99 102 109 116 124 130 140 142 137 146 129 150 273 196 227 103 288 321 10 351
291 299 323 359 346 17 19 6 351 351 346 9 18 325 2 337 358 24 14 14 287 134 102 127 129 119 118 121 130 126 127 135 149 146 162 109 357 247 282 313 28 12 0 351